Location: Dover
(39.1580°N, 75.5250°W)
Time: 01:15:19
(UTC-04:00)

SeaSat 1 - Visible Passes

Search period start: 27 March 2015 00:00
Search period end: 06 April 2015 00:00
Orbit: 746 x 749 km, 108.0° (Epoch: 25 March)

Date Brightness Start Highest point End Pass type
(mag) Time Alt. Az. Time Alt. Az. Time Alt. Az.
27 Mar 2.7 04:17:51 10° NNE 04:22:17 66° ENE 04:22:17 66° ENE visible
27 Mar 4.2 05:56:45 10° N 05:59:52 17° NW 06:02:07 12° W visible
28 Mar 4.3 03:36:47 10° NE 03:39:54 25° E 03:39:54 25° E visible
28 Mar 3.1 05:13:58 10° N 05:18:33 38° WNW 05:19:44 33° W visible
29 Mar 2.3 04:32:01 10° NNE 04:36:59 82° ESE 04:37:22 75° S visible
29 Mar 4.3 06:11:10 10° NNW 06:14:00 15° NW 06:16:39 10° W visible
30 Mar 3.9 03:50:50 10° NE 03:55:00 30° ESE 03:55:00 30° ESE visible
30 Mar 3.2 05:28:13 10° N 05:32:42 35° WNW 05:34:50 24° WSW visible
31 Mar 5.2 03:12:25 10° E 03:12:39 10° E 03:12:39 10° E visible
31 Mar 2.3 04:46:11 10° NNE 04:51:10 89° WNW 04:52:29 50° SSW visible
01 Apr 3.7 04:04:54 10° NE 04:09:20 33° ESE 04:10:09 32° SE visible
01 Apr 3.4 05:42:29 10° N 05:46:50 31° NW 05:49:59 16° WSW visible
02 Apr 5.0 03:25:30 10° E 03:27:09 12° E 03:27:49 12° ESE visible
02 Apr 2.3 05:00:22 10° NNE 05:05:20 80° WNW 05:07:39 32° SW visible
03 Apr 3.6 04:18:58 10° NE 04:23:32 37° ESE 04:25:20 28° SSE visible
03 Apr 3.5 05:56:45 10° N 06:00:58 28° NW 06:05:06 10° WSW visible
04 Apr 4.9 03:39:06 10° ENE 03:41:24 14° ESE 03:43:01 12° ESE visible
04 Apr 2.4 05:14:32 10° NNE 05:19:29 72° WNW 05:22:51 20° SW visible
05 Apr 3.4 04:33:03 10° NE 04:37:44 42° ESE 04:40:33 22° S visible
05 Apr 3.6 06:11:01 10° N 06:15:06 26° NW 06:19:05 10° WSW visible
